Regional Weather Roundup
Issued by NWS Sioux Falls, SD

Home | Current Version | Previous Version | Text Only | Print | Product List | Glossary On
Versions: 1 2 3 4 5 6 7 8 9 10 11 12 13 14 15 16 17 18 19 20 21 22 23 24 25 26 27 28 29 30 31 32 33 34 35 36 37 38 39 40 41 42 43 44 45 46 47 48 49 50
351
ASUS43 KFSD 040810
RWRFSD

WEATHER ROUNDUP FOR SE SOUTH DAKOTA/SW MINNESOTA/NW IOWA
NATIONAL WEATHER SERVICE SIOUX FALLS SD
300 AM CDT WED MAY 04 2016

NOTE: "FAIR" INDICATES FEW OR NO CLOUDS BELOW 12,000 FEET WITH NO
SIGNIFICANT WEATHER AND OR OBSTRUCTIONS TO VISIBILITY.


SDZ038>040-050-052>070-040900-
SOUTHEAST SOUTH DAKOTA

CITY           SKY/WX    TMP DP  RH WIND       PRES   REMARKS
BROOKINGS      CLEAR     41  31  67 CALM      29.99R
CHAMBERLAIN    CLEAR     54  32  43 NE7       30.06R
HURON          CLEAR     38  32  79 NW7       30.03R
MADISON        FAIR      46  32  57 N14       29.99R
MITCHELL       CLEAR     47  36  65 N9        30.03R
SIOUX FALLS    CLEAR     47  32  56 N13       29.97R
WINNER         FAIR      48  39  71 N3        30.08R
YANKTON        CLEAR     45  36  70 NW10      29.99R
$$

MNZ071-072-080-081-089-090-097-098-040900-
SOUTHWEST MINNESOTA

CITY           SKY/WX    TMP DP  RH WIND       PRES   REMARKS
FAIRMONT       CLEAR     48  28  46 N13       29.88R
JACKSON        CLEAR     46  32  57 N7        29.91R
LUVERNE        CLEAR     46  30  53 N9        29.96R
MARSHALL       CLEAR     43  32  65 NW10      29.96R
MONTEVIDEO     CLEAR     48  34  57 NE13      29.98R
PIPESTONE      CLEAR     46  30  53 N6        29.96R
REDWOOD FALLS  CLEAR     49  30  48 N8        29.93R
TRACY          CLEAR     47  32  56 NW10      29.95R
WINDOM         CLEAR     46  30  53 NW14      29.92R
WORTHINGTON    CLEAR     45  33  63 N12       29.93R
$$

IAZ001>003-012>014-020>022-031-032-NEZ013-014-SDZ071-040900-
NORTHWEST IOWA

CITY           SKY/WX    TMP DP  RH WIND       PRES   REMARKS
CHEROKEE       CLEAR     46  35  64 N5        29.91R
DENISON        CLEAR     52  36  54 N8        29.86S
ESTHERVILLE    CLEAR     46  34  62 N13       29.89R
LE MARS        CLEAR     50  34  53 MISG      29.94S
ORANGE CITY    CLEAR     48  34  57 N10       29.93S
SHELDON        CLEAR     43  36  75 NW9       29.92R
SIOUX CITY     CLEAR     53  32  44 N15G23    29.93R
SPENCER        CLEAR     48  33  56 N14       29.90R
STORM LAKE     CLEAR     48  34  57 N15       29.89R
$$

ABBREVIATIONS USED IN REMARKS
   TC - TEMPERATURE IN CELSIUS
  WCI - WIND CHILL INDEX
   HX - HEAT INDEX
  VSB - VISIBILITY





USA.gov is the U.S. government's official web portal to all federal, state and local government web resources and services.